SCP
0 0 0 0 0 0 0 0 0 0 0 0 0 0 1 0 0 0 0 0 0 0 0 0 0 0 0 0 0 0 0 0 0 0 0 0 0 0 0 0 0 0 0
-0 -0 -0 0 0 0 0 0 0 0 0 0 0 0 0 0 0 0 0 0 0 0 0 0 0 0 0 0 0 0 0 0 0 0 0 0 0 0 0 0 0 0 0
-0 -0 -0 0 0 0 0 0 0 0 0 0 0 0 0 1 0 0 0 0 0 0 0 1 0 0 0 0 0 0 0 0 0 0 0 0 0 0 0 0 0 0 0
0 0 0 0 0 0 0 0 0 0 0 0 0 0 0 0 0 0 0 0 0 0 0 0 0 0 0 0 0 0 0 0 0 0 0 0 0 0 0 0 0 0 0
0 0 0 0 0 0 0 0 0 0 0 0 0 0 0 0 0 0 0 0 0 0 0 0 0 0 0 0 0 0 0 0 0 0 0 0 0 0 0 0 0 0 0
0 0 0 0 0 0 0 0 0 0 0 0 0 0 0 0 0 0 0 0 0 0 0 0 0 0 0 0 0 0 0 0 0 0 0 0 0 0 0 0 0 0 0
0 0 0 0 0 0 0 0 0 0 0 0 0 0 0 0 0 0 0 0 0 0 0 0 0 0 1 0 0 0 0 0 0 0 0 0 0 0 0 0 0 0 0
0 0 0 0 0 0 0 0 0 0 0 0 0 0 0 0 0 0 0 0 0 0 0 0 0 0 0 0 0 0 0 0 0 0 0 0 0 0 0 0 0 0 0
0 0 0 0 0 0 0 0 0 0 0 0 0 0 0 0 0 0 0 0 0 0 0 0 0 0 0 0 0 0 0 0 0 0 0 0 0 0 0 0 0 0 0
0 0 0 0 0 0 0 0 0 0 0 0 0 0 0 0 0 0 0 0 0 0 0 0 0 0 0 0 0 0 0 0 0 0 0 0 0 0 0 0 0 0 0
0 0 0 0 0 0 0 0 0 0 0 0 0 0 0 0 0 0 0 0 0 0 0 0 0 0 0 0 0 0 0 0 0 0 0 0 0 0 0 0 0 0 0
0 0 0 0 0 0 0 0 0 0 0 0 0 0 0 0 0 0 0 0 0 0 0 0 0 0 0 0 0 0 0 0 0 0 0 0 0 0 0 0 0 0 0
0 0 0 0 0 0 0 0 0 0 0 0 0 0 0 0 0 0 0 0 0 0 0 0 0 0 0 0 0 0 0 0 0 0 0 0 0 0 0 0 0 0 0
0 0 0 0 0 0 0 0 0 0 0 0 0 0 0 0 0 0 0 0 0 0 0 0 0 0 0 0 0 0 0 0 0 0 0 0 0 0 0 0 0 0 0
0 0 0 0 0 0 0 0 0 0 0 0 0 0 0 0 0 0 0 0 0 0 0 0 0 0 0 0 0 0 0 0 0 0 0 0 0 0 0 0 0 0 0
0 0 0 0 0 0 0 0 0 0 0 0 0 0 0 0 0 0 0 0 0 0 0 0 0 0 0 0 0 0 0 0 0 0 0 0 0 0 0 0 0 0 0
0 0 0 0 0 -0 0 0 0 0 0 0 0 0 0 0 0 0 0 0 0 0 0 0 0 0 0 0 0 0 0 0 0 0 0 0 0 0 0 0 0 0 0
0 0 -0 -0 -0 -0 -0 -0 -0 -0 -0 -0 0 0 0 0 0 0 0 0 0 0 0 0 0 0 0 0 0 0 0 0 0 0 0 0 0 0 0 0 0 0 0
-0 -0 -0 -0 -0 -0 -0 -0 -0 -0 -0 -0 0 0 0 0 0 0 0 0 0 0 0 0 0 0 0 0 0 0 0 0 0 0 0 0 0 0 0 0 0 0 0
-0 -0 -0 -0 -0 0 -0 -0 -0 -0 -0 -0 0 0 0 0 0 0 0 0 0 0 0 0 0 0 0 0 0 0 0 0 0 0 0 0 0 0 0 0 0 0 0
-0 -0 -0 -0 -0 0 0 0 0 0 0 0 0 0 0 0 0 0 0 0 0 0 0 0 0 0 0 0 0 0 0 0 0 0 0 0 0 0 0 0 0 0 0
-0 -0 -0 -0 -0 0 -0 -0 -0 0 0 0 0 0 0 0 0 0 0 -0 0 0 0 0 0 0 0 0 0 0 0 0 0 0 0 0 0 0 0 0 0 0 0
0 0 -0 -0 0 0 0 0 0 0 0 0 0 0 0 0 0 0 0 0 0 0 0 0 0 0 0 0 0 0 0 0 0 0 0 0 0 0 0 0 0 0 0
0 0 0 0 0 0 0 0 0 0 0 0 0 0 0 0 0 0 0 0 0 0 0 0 0 0 0 0 0 -0 0 0 0 0 0 0 0 0 0 0 0 0 0
0 0 0 0 0 0 0 0 0 0 0 0 0 0 0 0 -0 -0 -0 0 -0 0 0 -0 0 0 0 -0 0 0 0 0 0 0 0 0 0 0 0 0 0 0 0
0 0 0 0 0 0 -0 -0 0 0 -0 0 0 0 -0 -0 -0 -0 -0 0 -0 0 0 0 0 0 0 0 0 0 0 0 0 0 -0 -0 0 0 0 0 0 0 0
Wind_Speed_500mb
53 54 53 51 49 49 51 51 57 70 64 57 58 61 64 63 61 62 62 62 61 58 53 51 45 38 35 31 29 25 22 20 18 16 12 9 7 6 10 15 20 18 20
55 55 56 56 57 55 50 50 51 54 63 64 59 59 64 63 64 66 70 66 65 63 62 59 53 45 43 38 33 30 26 23 20 19 15 12 11 10 11 15 17 18 21
51 53 55 57 57 59 60 54 51 53 53 59 61 59 60 60 56 62 64 71 72 66 71 68 63 53 49 44 38 34 30 28 24 21 17 14 14 14 14 15 19 17 26
46 50 52 53 56 59 60 60 55 55 56 54 65 64 59 57 56 64 61 68 76 74 71 72 74 62 54 50 45 39 37 33 29 25 21 18 18 17 17 19 20 21 25
49 55 57 58 57 56 56 57 57 56 58 58 57 63 73 66 60 58 64 71 71 76 75 77 78 72 62 54 48 44 42 37 32 27 24 21 20 20 22 24 23 23 25
49 57 58 62 58 57 57 56 53 54 55 56 59 63 65 73 66 63 59 58 62 64 64 75 81 77 70 61 54 48 47 40 38 31 27 23 22 23 27 26 24 25 25
53 55 56 61 61 53 54 56 55 53 58 49 54 61 63 67 67 68 62 59 63 60 60 70 81 82 72 68 60 54 49 42 38 33 27 27 24 24 23 23 26 25 21
55 57 55 58 58 55 54 55 52 53 52 45 38 43 43 46 53 58 66 63 61 58 57 62 71 76 76 74 67 63 54 44 43 34 32 27 26 22 20 26 25 21 12
49 54 56 58 61 56 56 56 55 49 50 50 38 27 21 24 18 30 51 61 65 63 58 60 70 78 73 77 71 67 56 52 47 35 32 26 23 22 23 22 17 18 15
59 63 67 67 63 56 53 52 57 52 50 55 59 53 52 42 26 20 40 52 55 58 58 60 60 63 69 77 82 69 65 59 53 42 32 27 23 22 18 15 26 25 29
62 68 59 54 54 51 49 49 52 55 56 54 53 62 57 63 45 45 21 37 46 46 50 58 54 58 68 81 85 68 69 62 55 40 30 23 19 22 36 26 28 30 36
63 61 55 52 54 55 51 51 53 58 56 55 51 56 55 54 55 36 42 45 37 37 44 50 57 58 58 79 74 72 74 70 49 38 29 42 48 44 41 38 40 34 39
62 60 56 56 56 50 50 52 54 53 52 55 54 55 57 64 66 62 48 54 37 39 44 50 48 58 63 74 75 79 60 54 48 46 59 51 54 50 43 36 30 37 43
63 63 62 59 58 58 56 55 54 52 52 57 55 50 48 52 58 64 59 40 42 36 34 30 42 46 54 61 80 71 65 60 53 55 53 51 48 39 32 28 34 38 42
68 69 61 61 60 60 61 59 52 53 52 60 52 43 51 53 50 57 76 49 53 29 26 28 22 34 41 54 71 88 83 68 68 59 55 49 40 33 29 29 35 39 42
76 68 65 63 63 62 60 58 56 59 58 53 51 55 53 54 49 47 74 52 51 46 34 39 34 53 54 84 88 87 78 81 71 63 54 43 30 21 19 24 28 34 38
74 66 65 62 60 63 62 62 68 74 62 57 53 66 61 51 52 48 57 57 52 54 45 52 66 77 81 74 92 84 71 65 44 34 36 25 14 7 12 19 25 27 24
80 70 65 70 72 69 70 77 76 64 62 52 49 45 45 44 47 43 42 43 43 35 51 79 80 87 94 85 82 70 57 47 38 32 16 11 6 14 16 24 32 35 34
65 68 69 66 70 74 73 70 63 60 55 44 38 42 49 45 43 43 40 39 48 51 64 86 92 89 90 86 76 73 65 61 57 52 43 35 35 37 30 29 30 25 29
65 64 65 69 67 64 62 57 52 51 46 43 45 47 46 51 49 47 45 48 53 49 77 98 101 97 91 76 69 64 57 45 45 32 24 23 20 32 26 33 35 34 32
63 63 60 61 58 54 52 52 47 47 42 43 47 49 45 46 45 41 54 62 54 59 90 102 101 95 82 74 64 53 52 41 39 29 24 19 14 17 29 33 32 32 28
58 56 58 56 52 51 45 45 45 38 36 38 37 34 42 51 42 45 45 56 60 67 97 110 103 92 79 65 53 42 33 35 39 24 23 33 25 31 30 34 25 23 18
59 52 51 48 45 41 39 37 40 40 38 40 34 31 36 40 42 56 46 56 53 54 83 106 110 85 69 49 37 34 30 22 39 38 26 37 26 27 23 32 27 23 20
47 42 38 36 33 24 2 9 15 23 26 34 35 38 42 54 73 82 79 74 70 68 81 83 67 60 48 42 32 30 31 43 47 42 34 40 29 31 28 26 23 27 24
52 40 26 27 26 44 45 60 47 55 69 79 78 83 84 88 87 85 84 79 74 81 77 69 63 59 50 41 27 34 44 49 53 42 38 38 33 33 31 33 31 28 27
78 104 98 90 76 70 72 85 86 95 97 92 82 73 64 76 80 67 81 102 106 87 77 74 68 60 52 43 34 27 37 49 52 38 33 38 26 20 30 31 29 30 27
Wind_Direction_500mb
313 309 307 306 305 303 301 293 286 278 276 270 265 259 259 256 252 248 247 241 239 235 238 241 248 253 251 248 245 246 238 235 232 239 250 290 329 328 336 345 347 3 8
312 308 303 300 297 298 296 295 291 284 279 271 270 261 257 259 260 250 247 242 241 238 237 238 242 249 247 244 243 241 237 233 234 237 247 262 274 298 318 333 339 348 354
315 313 309 303 298 293 290 288 286 280 276 274 275 266 259 258 256 247 246 245 238 241 240 238 237 247 244 244 245 237 233 232 235 238 250 257 268 281 303 319 323 344 328
325 323 321 315 309 300 294 286 285 281 277 270 271 272 270 262 255 250 249 243 238 238 240 240 235 241 241 244 246 233 232 234 232 235 245 258 270 281 298 305 316 319 325
325 328 329 327 317 310 303 299 285 283 279 275 272 270 266 263 254 250 247 234 241 242 243 239 235 236 238 234 238 232 231 233 236 239 247 260 271 278 287 296 306 313 322
322 325 325 329 321 313 309 304 298 284 279 279 278 273 269 263 258 251 249 244 245 248 247 244 235 235 235 233 231 230 227 232 234 239 249 261 274 282 287 285 297 308 313
309 319 316 320 322 315 314 316 309 299 283 277 283 278 275 266 262 249 244 244 243 245 247 247 237 234 235 233 230 227 224 228 232 238 243 261 272 280 279 271 292 301 303
306 300 306 307 308 308 313 314 312 309 294 285 286 287 289 279 265 251 242 241 243 244 246 243 234 235 230 234 232 227 223 228 228 237 236 257 269 273 266 283 286 284 236
302 300 296 298 297 298 300 307 310 307 310 280 267 273 277 252 283 252 237 235 239 240 242 242 241 240 236 233 231 227 222 228 229 235 239 253 261 268 279 276 264 201 233
307 303 302 299 290 285 286 296 303 301 306 295 275 254 258 274 275 256 244 228 225 231 237 243 245 246 240 236 232 233 225 227 230 234 242 251 255 254 260 216 164 213 254
303 305 299 297 290 283 283 286 294 297 299 296 280 270 263 263 275 270 262 232 232 225 232 232 241 251 244 239 233 217 227 224 225 226 236 238 236 196 158 157 205 238 264
299 300 297 291 295 288 284 286 289 292 292 292 279 265 262 263 264 278 232 235 220 214 226 238 233 243 239 248 223 224 221 224 212 213 204 165 157 163 182 205 227 260 300
299 298 296 294 291 289 292 288 286 288 287 290 278 269 257 250 255 261 283 238 206 211 227 232 233 243 247 237 229 222 206 189 189 189 183 190 193 200 211 244 274 298 308
302 297 292 291 288 288 294 297 285 285 281 291 276 269 257 252 247 253 258 266 207 209 220 208 224 223 223 225 219 201 184 185 192 198 207 205 212 224 246 268 290 302 313
297 301 293 288 284 283 285 292 286 292 280 285 267 256 258 262 253 248 245 262 247 182 189 193 180 203 202 198 171 164 167 178 188 198 209 214 228 233 249 277 296 309 312
295 293 288 284 280 277 278 283 284 292 291 278 256 249 252 254 259 249 236 254 242 214 176 174 160 157 181 156 154 168 161 176 183 193 203 216 212 231 272 290 299 306 315
299 292 290 282 280 282 281 281 285 290 281 278 260 246 252 254 252 245 237 243 244 213 192 152 152 156 162 174 161 159 164 170 155 157 185 186 200 253 294 310 314 322 2
294 291 287 282 283 280 281 280 281 279 277 269 264 242 249 246 243 235 228 238 243 232 207 160 153 155 156 155 163 162 151 140 124 105 139 97 63 72 61 55 56 44 38
293 287 287 284 280 280 280 279 278 273 268 257 235 240 240 237 232 233 230 229 232 203 197 176 157 157 155 156 151 148 137 132 121 109 99 95 93 89 74 61 45 48 53
300 293 287 280 283 280 277 274 270 265 251 239 238 246 232 229 223 220 226 224 214 193 177 171 162 158 155 150 149 139 128 123 115 110 120 132 102 82 69 68 59 53 53
299 294 289 285 282 276 271 268 261 252 245 243 244 243 228 221 216 217 215 206 211 193 178 165 160 160 152 146 145 135 124 111 95 110 134 118 102 96 85 67 60 53 45
294 288 283 281 280 276 271 271 253 252 242 242 240 238 234 209 214 217 224 224 221 214 180 172 165 156 150 146 136 124 122 107 110 115 126 109 109 101 92 75 62 47 34
305 295 287 284 282 274 270 262 251 240 234 217 223 210 227 234 218 189 184 175 167 170 177 176 165 151 141 138 132 118 118 124 130 132 133 115 112 99 88 79 60 47 28
327 310 289 270 263 268 277 153 223 207 227 228 238 185 165 163 162 152 139 135 133 143 161 150 138 133 129 119 113 111 125 129 121 124 127 106 101 89 76 66 67 54 43
12 23 92 120 108 107 120 136 147 145 133 124 136 144 147 139 142 145 141 134 128 126 124 124 121 112 109 103 105 131 130 126 124 120 111 102 102 94 80 62 52 49 46
55 80 92 100 106 110 128 130 130 119 109 108 107 114 118 132 139 137 131 131 124 122 122 119 120 120 122 118 109 108 122 121 119 115 117 113 107 89 67 68 68 58 44
Wind_Speed_850mb
53 54 53 51 49 49 51 51 57 70 64 57 58 61 64 63 61 62 62 62 61 58 53 51 45 38 35 31 29 25 22 20 18 16 12 9 7 6 10 15 20 18 20
55 55 56 56 57 55 50 50 51 54 63 64 59 59 64 63 64 66 70 66 65 63 62 59 53 45 43 38 33 30 26 23 20 19 15 12 11 10 11 15 17 18 21
51 53 55 57 57 59 60 54 51 53 53 59 61 59 60 60 56 62 64 71 72 66 71 68 63 53 49 44 38 34 30 28 24 21 17 14 14 14 14 15 19 17 26
46 50 52 53 56 59 60 60 55 55 56 54 65 64 59 57 56 64 61 68 76 74 71 72 74 62 54 50 45 39 37 33 29 25 21 18 18 17 17 19 20 21 25
49 55 57 58 57 56 56 57 57 56 58 58 57 63 73 66 60 58 64 71 71 76 75 77 78 72 62 54 48 44 42 37 32 27 24 21 20 20 22 24 23 23 25
49 57 58 62 58 57 57 56 53 54 55 56 59 63 65 73 66 63 59 58 62 64 64 75 81 77 70 61 54 48 47 40 38 31 27 23 22 23 27 26 24 25 25
53 55 56 61 61 53 54 56 55 53 58 49 54 61 63 67 67 68 62 59 63 60 60 70 81 82 72 68 60 54 49 42 38 33 27 27 24 24 23 23 26 25 21
55 57 55 58 58 55 54 55 52 53 52 45 38 43 43 46 53 58 66 63 61 58 57 62 71 76 76 74 67 63 54 44 43 34 32 27 26 22 20 26 25 21 12
49 54 56 58 61 56 56 56 55 49 50 50 38 27 21 24 18 30 51 61 65 63 58 60 70 78 73 77 71 67 56 52 47 35 32 26 23 22 23 22 17 18 15
59 63 67 67 63 56 53 52 57 52 50 55 59 53 52 42 26 20 40 52 55 58 58 60 60 63 69 77 82 69 65 59 53 42 32 27 23 22 18 15 26 25 29
62 68 59 54 54 51 49 49 52 55 56 54 53 62 57 63 45 45 21 37 46 46 50 58 54 58 68 81 85 68 69 62 55 40 30 23 19 22 36 26 28 30 36
63 61 55 52 54 55 51 51 53 58 56 55 51 56 55 54 55 36 42 45 37 37 44 50 57 58 58 79 74 72 74 70 49 38 29 42 48 44 41 38 40 34 39
62 60 56 56 56 50 50 52 54 53 52 55 54 55 57 64 66 62 48 54 37 39 44 50 48 58 63 74 75 79 60 54 48 46 59 51 54 50 43 36 30 37 43
63 63 62 59 58 58 56 55 54 52 52 57 55 50 48 52 58 64 59 40 42 36 34 30 42 46 54 61 80 71 65 60 53 55 53 51 48 39 32 28 34 38 42
68 69 61 61 60 60 61 59 52 53 52 60 52 43 51 53 50 57 76 49 53 29 26 28 22 34 41 54 71 88 83 68 68 59 55 49 40 33 29 29 35 39 42
76 68 65 63 63 62 60 58 56 59 58 53 51 55 53 54 49 47 74 52 51 46 34 39 34 53 54 84 88 87 78 81 71 63 54 43 30 21 19 24 28 34 38
74 66 65 62 60 63 62 62 68 74 62 57 53 66 61 51 52 48 57 57 52 54 45 52 66 77 81 74 92 84 71 65 44 34 36 25 14 7 12 19 25 27 24
80 70 65 70 72 69 70 77 76 64 62 52 49 45 45 44 47 43 42 43 43 35 51 79 80 87 94 85 82 70 57 47 38 32 16 11 6 14 16 24 32 35 34
65 68 69 66 70 74 73 70 63 60 55 44 38 42 49 45 43 43 40 39 48 51 64 86 92 89 90 86 76 73 65 61 57 52 43 35 35 37 30 29 30 25 29
65 64 65 69 67 64 62 57 52 51 46 43 45 47 46 51 49 47 45 48 53 49 77 98 101 97 91 76 69 64 57 45 45 32 24 23 20 32 26 33 35 34 32
63 63 60 61 58 54 52 52 47 47 42 43 47 49 45 46 45 41 54 62 54 59 90 102 101 95 82 74 64 53 52 41 39 29 24 19 14 17 29 33 32 32 28
58 56 58 56 52 51 45 45 45 38 36 38 37 34 42 51 42 45 45 56 60 67 97 110 103 92 79 65 53 42 33 35 39 24 23 33 25 31 30 34 25 23 18
59 52 51 48 45 41 39 37 40 40 38 40 34 31 36 40 42 56 46 56 53 54 83 106 110 85 69 49 37 34 30 22 39 38 26 37 26 27 23 32 27 23 20
47 42 38 36 33 24 2 9 15 23 26 34 35 38 42 54 73 82 79 74 70 68 81 83 67 60 48 42 32 30 31 43 47 42 34 40 29 31 28 26 23 27 24
52 40 26 27 26 44 45 60 47 55 69 79 78 83 84 88 87 85 84 79 74 81 77 69 63 59 50 41 27 34 44 49 53 42 38 38 33 33 31 33 31 28 27
78 104 98 90 76 70 72 85 86 95 97 92 82 73 64 76 80 67 81 102 106 87 77 74 68 60 52 43 34 27 37 49 52 38 33 38 26 20 30 31 29 30 27
Wind_Direction_850mb
313 309 307 306 305 303 301 293 286 278 276 270 265 259 259 256 252 248 247 241 239 235 238 241 248 253 251 248 245 246 238 235 232 239 250 290 329 328 336 345 347 3 8
312 308 303 300 297 298 296 295 291 284 279 271 270 261 257 259 260 250 247 242 241 238 237 238 242 249 247 244 243 241 237 233 234 237 247 262 274 298 318 333 339 348 354
315 313 309 303 298 293 290 288 286 280 276 274 275 266 259 258 256 247 246 245 238 241 240 238 237 247 244 244 245 237 233 232 235 238 250 257 268 281 303 319 323 344 328
325 323 321 315 309 300 294 286 285 281 277 270 271 272 270 262 255 250 249 243 238 238 240 240 235 241 241 244 246 233 232 234 232 235 245 258 270 281 298 305 316 319 325
325 328 329 327 317 310 303 299 285 283 279 275 272 270 266 263 254 250 247 234 241 242 243 239 235 236 238 234 238 232 231 233 236 239 247 260 271 278 287 296 306 313 322
322 325 325 329 321 313 309 304 298 284 279 279 278 273 269 263 258 251 249 244 245 248 247 244 235 235 235 233 231 230 227 232 234 239 249 261 274 282 287 285 297 308 313
309 319 316 320 322 315 314 316 309 299 283 277 283 278 275 266 262 249 244 244 243 245 247 247 237 234 235 233 230 227 224 228 232 238 243 261 272 280 279 271 292 301 303
306 300 306 307 308 308 313 314 312 309 294 285 286 287 289 279 265 251 242 241 243 244 246 243 234 235 230 234 232 227 223 228 228 237 236 257 269 273 266 283 286 284 236
302 300 296 298 297 298 300 307 310 307 310 280 267 273 277 252 283 252 237 235 239 240 242 242 241 240 236 233 231 227 222 228 229 235 239 253 261 268 279 276 264 201 233
307 303 302 299 290 285 286 296 303 301 306 295 275 254 258 274 275 256 244 228 225 231 237 243 245 246 240 236 232 233 225 227 230 234 242 251 255 254 260 216 164 213 254
303 305 299 297 290 283 283 286 294 297 299 296 280 270 263 263 275 270 262 232 232 225 232 232 241 251 244 239 233 217 227 224 225 226 236 238 236 196 158 157 205 238 264
299 300 297 291 295 288 284 286 289 292 292 292 279 265 262 263 264 278 232 235 220 214 226 238 233 243 239 248 223 224 221 224 212 213 204 165 157 163 182 205 227 260 300
299 298 296 294 291 289 292 288 286 288 287 290 278 269 257 250 255 261 283 238 206 211 227 232 233 243 247 237 229 222 206 189 189 189 183 190 193 200 211 244 274 298 308
302 297 292 291 288 288 294 297 285 285 281 291 276 269 257 252 247 253 258 266 207 209 220 208 224 223 223 225 219 201 184 185 192 198 207 205 212 224 246 268 290 302 313
297 301 293 288 284 283 285 292 286 292 280 285 267 256 258 262 253 248 245 262 247 182 189 193 180 203 202 198 171 164 167 178 188 198 209 214 228 233 249 277 296 309 312
295 293 288 284 280 277 278 283 284 292 291 278 256 249 252 254 259 249 236 254 242 214 176 174 160 157 181 156 154 168 161 176 183 193 203 216 212 231 272 290 299 306 315
299 292 290 282 280 282 281 281 285 290 281 278 260 246 252 254 252 245 237 243 244 213 192 152 152 156 162 174 161 159 164 170 155 157 185 186 200 253 294 310 314 322 2
294 291 287 282 283 280 281 280 281 279 277 269 264 242 249 246 243 235 228 238 243 232 207 160 153 155 156 155 163 162 151 140 124 105 139 97 63 72 61 55 56 44 38
293 287 287 284 280 280 280 279 278 273 268 257 235 240 240 237 232 233 230 229 232 203 197 176 157 157 155 156 151 148 137 132 121 109 99 95 93 89 74 61 45 48 53
300 293 287 280 283 280 277 274 270 265 251 239 238 246 232 229 223 220 226 224 214 193 177 171 162 158 155 150 149 139 128 123 115 110 120 132 102 82 69 68 59 53 53
299 294 289 285 282 276 271 268 261 252 245 243 244 243 228 221 216 217 215 206 211 193 178 165 160 160 152 146 145 135 124 111 95 110 134 118 102 96 85 67 60 53 45
294 288 283 281 280 276 271 271 253 252 242 242 240 238 234 209 214 217 224 224 221 214 180 172 165 156 150 146 136 124 122 107 110 115 126 109 109 101 92 75 62 47 34
305 295 287 284 282 274 270 262 251 240 234 217 223 210 227 234 218 189 184 175 167 170 177 176 165 151 141 138 132 118 118 124 130 132 133 115 112 99 88 79 60 47 28
327 310 289 270 263 268 277 153 223 207 227 228 238 185 165 163 162 152 139 135 133 143 161 150 138 133 129 119 113 111 125 129 121 124 127 106 101 89 76 66 67 54 43
12 23 92 120 108 107 120 136 147 145 133 124 136 144 147 139 142 145 141 134 128 126 124 124 121 112 109 103 105 131 130 126 124 120 111 102 102 94 80 62 52 49 46
55 80 92 100 106 110 128 130 130 119 109 108 107 114 118 132 139 137 131 131 124 122 122 119 120 120 122 118 109 108 122 121 119 115 117 113 107 89 67 68 68 58 44